SCP
0 0 0 0 0 0 0 0 0 0 0 0 0 0 0 0 0 0 0 0 0 0 0 0 0 0 0 0 0 0 0 0 0 0 0 0 0 0 0 0 0 0 0 0
0 0 0 0 0 0 0 0 0 0 0 0 0 0 0 0 0 0 0 0 0 0 0 0 0 0 0 0 0 0 0 0 0 0 0 0 0 0 0 0 0 0 0 0
0 0 0 0 0 0 0 0 0 0 0 0 0 0 0 0 0 0 0 0 0 0 0 0 0 0 0 0 0 0 0 0 0 0 0 0 0 0 0 0 0 0 0 0
0 0 0 0 0 0 0 0 0 0 0 0 0 0 0 0 0 0 0 0 0 0 0 0 0 0 0 0 0 0 0 0 0 0 0 0 0 0 0 0 0 0 0 0
0 0 0 0 0 0 0 0 0 0 0 0 0 0 -0 0 0 0 0 0 0 0 0 0 0 0 0 0 0 0 0 0 0 0 0 0 0 0 0 0 0 0 0 0
0 0 0 0 0 0 0 0 0 0 0 0 0 0 -0 -0 -0 0 0 0 0 0 0 0 0 0 0 0 0 0 0 0 0 0 0 0 0 0 0 0 0 0 0 0
0 0 0 0 0 0 0 0 0 0 0 0 0 0 0 0 0 0 0 0 0 0 0 0 0 0 0 0 0 0 0 0 0 0 0 0 0 0 0 0 0 0 0 0
0 0 0 0 0 0 0 0 0 0 0 0 0 0 0 0 0 0 0 0 0 0 0 0 0 0 0 0 0 0 0 0 0 0 0 0 0 0 0 0 0 0 0 0
0 0 0 0 0 0 0 0 0 0 0 0 0 0 0 0 0 0 0 0 0 0 0 0 0 0 0 0 0 0 0 0 0 0 0 0 0 0 0 0 0 0 0 0
0 0 0 0 0 0 0 0 0 0 0 0 0 0 0 0 0 0 0 0 0 0 0 0 0 0 0 0 0 0 0 0 0 0 0 0 0 0 0 0 0 0 0 0
0 0 0 0 0 0 0 0 0 0 0 0 0 0 0 0 0 0 0 0 0 0 0 0 0 0 0 0 0 0 0 0 0 0 0 0 0 0 0 0 0 0 0 0
0 0 0 0 0 0 0 0 0 0 0 0 0 0 0 0 0 0 0 0 0 0 0 0 0 -0 -0 -0 0 0 0 0 0 0 0 0 0 0 0 0 0 0 0 0
0 0 0 0 0 0 0 0 0 0 0 0 0 0 0 0 0 0 0 0 0 0 0 -0 -0 -0 -0 0 0 0 0 0 0 0 0 0 0 0 0 0 0 0 0 0
0 0 0 0 0 0 0 0 0 0 0 0 0 0 0 0 0 0 0 0 0 0 0 -0 -0 -0 0 0 0 0 0 0 0 0 0 0 0 0 0 0 0 0 0 0
0 0 0 0 0 0 0 0 0 0 0 0 0 0 0 0 0 0 0 0 0 -0 -0 -0 0 0 0 0 0 0 0 0 0 0 0 0 0 0 0 0 0 0 0 0
0 0 0 0 0 0 0 0 0 0 0 0 0 0 0 0 0 0 0 0 0 0 0 0 0 0 0 0 0 0 0 0 0 0 0 0 0 0 0 0 0 0 0 0
0 0 0 0 0 0 0 0 0 0 0 0 0 0 0 0 0 0 0 0 0 0 0 0 0 0 0 0 0 0 0 0 0 0 0 0 0 0 0 0 0 0 0 0
0 0 0 0 0 0 0 0 0 0 0 0 0 0 0 0 0 0 0 0 0 0 0 0 0 0 0 0 0 0 0 0 0 0 0 0 0 0 0 0 0 0 0 0
0 0 0 0 0 0 0 0 0 0 0 0 0 0 0 0 0 0 0 0 0 0 0 0 0 0 0 0 0 0 0 0 0 0 0 0 0 0 0 0 0 0 0 0
0 0 0 0 0 0 0 0 0 0 0 0 0 0 0 0 0 0 0 0 0 0 0 0 0 0 0 0 0 0 0 0 0 0 0 0 0 0 0 0 0 0 0 0
0 0 0 0 0 0 0 0 0 0 0 0 0 0 0 0 0 0 0 0 0 0 0 0 0 0 0 0 0 0 0 0 0 0 0 0 0 0 0 0 0 0 0 0
0 0 0 0 0 0 0 0 0 0 0 0 0 0 0 0 0 0 0 0 0 0 0 0 0 0 0 0 0 0 0 0 0 0 0 0 0 0 0 0 0 0 0 0
0 0 0 0 0 0 0 0 0 0 0 0 0 0 0 0 0 0 0 0 0 0 0 0 0 0 0 0 0 0 0 0 0 0 0 0 0 0 0 0 0 0 0 0
0 0 0 0 0 0 0 0 0 0 0 0 0 0 0 0 0 0 0 0 0 0 0 0 0 0 0 0 0 0 0 0 0 0 0 0 0 0 0 0 0 0 0 0
0 0 0 0 0 0 0 0 0 0 0 0 0 0 0 0 0 0 0 0 0 0 0 0 0 0 0 0 0 0 0 0 0 0 0 0 0 0 0 0 0 0 0 0
0 0 0 0 0 0 0 0 0 0 0 0 0 0 0 0 0 0 0 0 0 0 0 0 0 0 0 0 0 0 0 0 0 0 0 0 0 0 0 0 0 0 0 0
Wind_Speed_500mb
8 7 13 22 15 6 9 3 10 4 4 4 7 11 19 42 32 30 29 32 38 45 39 29 29 30 34 44 50 49 44 43 45 50 52 54 57 52 46 42 38 40 45 51
8 7 10 12 13 11 2 1 3 3 8 5 6 16 25 27 30 51 57 59 56 51 57 54 48 48 47 47 54 59 59 60 62 58 56 58 54 52 48 44 41 38 37 42
10 4 16 8 11 19 10 10 4 2 1 5 9 14 14 11 42 54 69 65 59 60 59 55 44 37 40 44 45 49 50 50 52 55 57 56 55 52 50 50 45 39 37 34
5 9 3 10 4 8 9 6 8 10 6 5 6 9 12 14 14 13 45 48 53 57 50 47 38 39 48 54 50 55 59 59 57 52 54 56 56 54 50 47 44 41 40 34
9 6 9 5 5 7 5 9 10 8 6 5 6 3 14 11 15 16 11 21 17 17 23 22 24 31 41 47 50 54 55 50 52 51 51 49 53 51 45 41 36 33 32 28
5 4 7 10 5 6 14 12 14 8 6 2 18 14 9 8 11 6 8 15 15 8 4 9 12 20 28 33 33 38 45 47 48 50 50 53 52 50 44 38 29 29 29 31
5 2 3 3 8 5 9 11 5 4 3 10 6 8 13 13 9 14 20 17 11 3 7 6 6 6 6 7 10 12 17 23 29 31 39 53 57 55 50 42 43 41 43 38
11 5 14 10 9 10 10 9 9 14 8 6 7 12 10 7 9 26 24 16 4 2 9 7 4 5 7 7 5 4 4 8 13 18 22 27 33 39 41 38 42 43 37 35
10 7 10 7 6 13 9 12 3 7 3 5 8 11 17 11 9 14 14 12 13 10 7 5 1 3 6 7 7 7 6 5 4 8 13 18 23 26 29 28 30 28 25 25
6 7 5 3 5 3 8 12 3 3 5 8 8 8 10 5 15 12 15 18 15 11 7 6 6 9 11 12 13 13 12 11 11 12 12 13 14 14 14 14 15 15 13 12
5 8 2 10 15 23 9 7 9 8 8 7 2 9 10 15 13 18 19 12 14 16 15 15 15 14 16 16 14 16 17 17 17 16 13 11 10 9 9 9 9 7 6 8
13 7 7 12 5 8 8 8 11 7 8 7 4 9 5 15 21 32 21 18 16 7 9 13 18 19 20 20 20 18 19 22 22 19 17 16 15 13 10 7 6 7 9 12
15 7 7 5 6 1 13 20 17 6 5 8 9 9 1 12 20 28 29 18 11 7 4 6 19 25 30 31 30 29 26 28 27 25 24 23 19 11 7 7 10 13 17 19
32 10 13 16 7 11 13 22 32 27 7 10 17 5 10 15 14 17 10 7 2 11 17 20 20 25 34 35 37 37 34 32 35 32 31 30 25 17 14 14 17 20 23 26
13 12 7 11 4 1 5 15 29 30 45 19 36 23 19 16 12 17 20 21 21 32 34 35 37 44 47 44 42 41 41 38 37 41 39 36 30 24 22 23 25 26 28 28
9 5 8 6 14 17 12 11 26 42 44 31 24 20 9 20 33 43 49 38 39 36 40 41 42 48 53 53 53 48 44 41 41 46 52 49 44 40 32 30 32 32 32 32
6 11 7 10 8 8 5 33 21 21 33 28 34 37 9 13 27 45 47 45 40 40 37 42 59 60 55 53 51 50 44 42 43 44 51 57 55 50 45 39 38 38 35 37
6 9 7 7 6 14 17 16 33 31 24 26 26 17 24 36 48 37 35 46 58 57 54 51 42 43 41 42 43 46 50 44 45 45 48 55 59 56 52 45 40 42 42 40
33 19 4 6 13 7 10 16 26 23 41 25 23 37 40 40 36 44 53 43 42 44 37 31 31 32 34 42 47 48 48 47 47 50 50 52 56 56 52 48 45 46 44 40
25 22 14 5 10 18 32 10 27 12 13 30 39 34 31 21 7 14 31 25 16 11 15 22 31 38 40 43 45 47 45 45 46 50 53 53 55 54 52 50 49 48 43 37
13 15 30 25 16 12 19 8 33 16 19 6 34 47 35 12 30 34 22 19 19 21 22 25 30 36 43 48 52 53 48 46 48 52 53 53 54 53 51 48 44 39 36 32
10 11 14 18 10 13 15 13 20 26 22 11 13 17 22 22 14 23 22 18 19 24 30 36 42 44 47 51 54 53 50 46 48 49 48 48 48 46 43 39 37 34 30 24
7 13 8 12 10 10 43 13 21 30 24 14 15 21 26 26 26 25 26 25 27 34 39 42 46 49 50 52 56 54 44 42 42 40 40 40 40 39 36 34 32 28 25 22
9 11 9 7 19 9 4 8 7 5 13 18 17 18 26 33 35 35 30 27 35 40 42 44 47 50 52 54 54 48 43 37 37 38 35 34 35 35 34 33 30 27 24 20
13 17 11 8 8 2 21 22 23 31 32 30 27 34 41 44 50 46 41 39 45 44 44 42 45 50 54 55 51 45 40 38 35 34 33 33 33 33 31 30 27 23 20 18
16 12 12 11 13 20 36 42 31 31 22 21 30 38 40 44 51 42 52 54 50 45 43 43 43 46 48 50 48 43 39 36 35 34 34 34 33 33 30 26 20 14 6 10
Wind_Direction_500mb
192 136 191 199 182 112 121 150 217 80 335 120 227 259 266 281 275 259 247 252 251 244 238 240 233 239 246 243 241 240 240 244 249 254 256 263 268 270 265 263 262 262 261 261
75 238 225 204 216 232 230 23 301 96 162 145 249 269 267 251 251 249 248 244 247 253 257 260 266 266 261 258 257 252 249 251 253 252 253 259 265 268 269 266 264 268 263 261
145 196 205 243 174 204 185 176 235 44 54 322 24 297 274 285 240 247 252 256 260 263 264 264 259 260 261 255 243 238 240 243 249 251 255 255 256 257 258 262 265 268 275 270
212 275 114 127 166 141 178 222 208 112 90 237 124 284 304 278 267 229 249 248 251 254 262 270 261 247 256 253 247 245 247 254 251 246 250 251 253 257 266 264 268 271 269 266
219 179 146 129 188 125 161 66 136 107 105 27 285 214 267 281 267 261 262 243 238 227 230 245 255 251 251 253 253 252 253 253 250 248 244 243 246 257 261 258 256 251 258 262
118 338 148 178 185 173 146 86 52 52 88 317 221 180 265 228 225 130 108 136 141 159 269 276 284 266 257 257 256 256 255 250 244 242 240 238 239 245 251 253 249 234 245 249
116 239 47 128 102 32 115 115 48 358 320 228 297 186 244 243 189 165 156 137 136 142 274 279 298 315 307 277 275 265 252 245 240 240 237 237 239 243 245 241 236 237 247 251
151 220 172 192 187 163 178 160 160 201 202 242 317 231 249 268 131 143 138 135 157 197 204 241 284 356 356 347 336 301 261 239 240 237 229 227 230 233 239 239 239 248 254 254
151 245 129 161 139 132 169 215 176 108 24 59 233 282 307 189 109 115 115 113 107 132 176 167 192 349 2 352 331 325 317 290 230 205 209 220 225 228 233 236 239 239 235 239
155 117 179 112 155 266 162 154 143 355 175 241 264 257 235 161 169 128 105 93 98 116 141 91 45 35 18 352 331 319 304 283 264 245 224 213 211 211 213 214 218 222 225 237
183 111 199 131 205 188 164 190 200 151 173 196 248 261 233 209 165 144 147 104 100 87 77 57 36 29 9 356 341 314 297 280 265 252 239 221 203 193 192 202 216 234 262 282
186 105 168 192 311 169 228 192 190 154 229 222 146 274 284 137 160 152 165 138 129 98 53 18 2 348 351 331 318 306 287 280 267 251 227 201 193 196 201 214 244 271 288 298
174 160 137 150 341 318 207 209 213 175 88 218 152 252 193 152 143 154 162 180 178 165 148 360 344 329 334 333 326 313 290 269 255 245 229 217 203 195 218 257 278 284 288 292
175 170 186 195 171 150 196 205 212 205 190 192 222 193 193 203 188 199 185 142 338 310 297 307 325 326 318 316 314 312 302 278 256 246 234 223 216 218 230 252 267 278 282 285
186 199 203 211 59 253 217 207 205 209 224 190 234 212 231 208 217 229 282 294 308 304 295 305 315 311 315 308 306 309 306 290 265 247 238 236 239 242 248 258 263 269 274 284
189 231 159 268 230 199 241 246 210 218 231 230 240 249 203 267 286 291 291 300 304 295 290 297 294 302 303 304 300 303 297 295 282 257 247 247 249 250 252 260 264 270 281 289
239 165 135 235 200 132 231 221 214 223 230 219 235 241 200 237 242 253 270 275 270 271 277 283 294 297 291 293 295 295 296 292 285 275 258 253 252 252 253 257 261 266 269 271
243 250 173 220 83 227 236 186 205 214 227 217 240 240 219 233 247 257 257 267 277 278 282 287 292 293 289 291 295 295 291 287 277 278 272 261 256 255 255 258 261 262 262 263
210 227 225 239 211 292 305 219 191 194 240 226 229 249 251 257 264 262 262 266 274 281 284 283 284 291 297 297 294 293 291 286 278 268 265 266 263 260 258 257 259 259 259 257
198 210 196 187 238 203 238 184 197 104 273 232 217 245 244 230 197 255 273 254 217 225 253 270 283 285 294 301 299 295 288 279 272 267 263 261 259 255 253 255 257 254 251 250
197 201 213 218 240 264 250 227 149 140 236 250 236 245 245 189 243 271 217 223 247 263 278 288 294 299 305 303 299 296 287 277 266 258 257 256 255 253 254 257 255 252 250 249
217 184 205 204 212 247 160 133 164 215 207 244 200 244 252 249 222 209 228 252 271 285 293 298 300 301 302 298 292 289 283 275 264 260 258 256 254 253 251 247 243 243 245 246
222 185 186 186 219 224 172 201 234 241 240 231 216 233 246 243 238 242 255 268 279 291 294 294 294 294 294 292 288 283 280 272 265 259 257 254 250 245 240 235 233 232 232 234
255 177 194 124 240 180 211 187 186 232 258 258 247 248 241 253 266 270 269 282 300 300 298 297 294 291 289 289 285 276 269 260 257 256 250 244 238 233 228 225 220 217 223 237
199 162 181 253 258 209 256 247 250 257 257 255 265 272 270 268 265 272 264 291 306 297 291 286 290 291 286 282 275 267 259 256 249 246 238 230 226 223 221 217 215 212 219 233
181 184 190 222 208 220 253 260 263 257 257 271 285 279 275 269 273 269 279 295 297 288 282 284 287 283 278 274 268 260 254 248 238 229 225 220 217 214 210 207 209 198 237 293
Wind_Speed_850mb
8 7 13 22 15 6 9 3 10 4 4 4 7 11 19 42 32 30 29 32 38 45 39 29 29 30 34 44 50 49 44 43 45 50 52 54 57 52 46 42 38 40 45 51
8 7 10 12 13 11 2 1 3 3 8 5 6 16 25 27 30 51 57 59 56 51 57 54 48 48 47 47 54 59 59 60 62 58 56 58 54 52 48 44 41 38 37 42
10 4 16 8 11 19 10 10 4 2 1 5 9 14 14 11 42 54 69 65 59 60 59 55 44 37 40 44 45 49 50 50 52 55 57 56 55 52 50 50 45 39 37 34
5 9 3 10 4 8 9 6 8 10 6 5 6 9 12 14 14 13 45 48 53 57 50 47 38 39 48 54 50 55 59 59 57 52 54 56 56 54 50 47 44 41 40 34
9 6 9 5 5 7 5 9 10 8 6 5 6 3 14 11 15 16 11 21 17 17 23 22 24 31 41 47 50 54 55 50 52 51 51 49 53 51 45 41 36 33 32 28
5 4 7 10 5 6 14 12 14 8 6 2 18 14 9 8 11 6 8 15 15 8 4 9 12 20 28 33 33 38 45 47 48 50 50 53 52 50 44 38 29 29 29 31
5 2 3 3 8 5 9 11 5 4 3 10 6 8 13 13 9 14 20 17 11 3 7 6 6 6 6 7 10 12 17 23 29 31 39 53 57 55 50 42 43 41 43 38
11 5 14 10 9 10 10 9 9 14 8 6 7 12 10 7 9 26 24 16 4 2 9 7 4 5 7 7 5 4 4 8 13 18 22 27 33 39 41 38 42 43 37 35
10 7 10 7 6 13 9 12 3 7 3 5 8 11 17 11 9 14 14 12 13 10 7 5 1 3 6 7 7 7 6 5 4 8 13 18 23 26 29 28 30 28 25 25
6 7 5 3 5 3 8 12 3 3 5 8 8 8 10 5 15 12 15 18 15 11 7 6 6 9 11 12 13 13 12 11 11 12 12 13 14 14 14 14 15 15 13 12
5 8 2 10 15 23 9 7 9 8 8 7 2 9 10 15 13 18 19 12 14 16 15 15 15 14 16 16 14 16 17 17 17 16 13 11 10 9 9 9 9 7 6 8
13 7 7 12 5 8 8 8 11 7 8 7 4 9 5 15 21 32 21 18 16 7 9 13 18 19 20 20 20 18 19 22 22 19 17 16 15 13 10 7 6 7 9 12
15 7 7 5 6 1 13 20 17 6 5 8 9 9 1 12 20 28 29 18 11 7 4 6 19 25 30 31 30 29 26 28 27 25 24 23 19 11 7 7 10 13 17 19
32 10 13 16 7 11 13 22 32 27 7 10 17 5 10 15 14 17 10 7 2 11 17 20 20 25 34 35 37 37 34 32 35 32 31 30 25 17 14 14 17 20 23 26
13 12 7 11 4 1 5 15 29 30 45 19 36 23 19 16 12 17 20 21 21 32 34 35 37 44 47 44 42 41 41 38 37 41 39 36 30 24 22 23 25 26 28 28
9 5 8 6 14 17 12 11 26 42 44 31 24 20 9 20 33 43 49 38 39 36 40 41 42 48 53 53 53 48 44 41 41 46 52 49 44 40 32 30 32 32 32 32
6 11 7 10 8 8 5 33 21 21 33 28 34 37 9 13 27 45 47 45 40 40 37 42 59 60 55 53 51 50 44 42 43 44 51 57 55 50 45 39 38 38 35 37
6 9 7 7 6 14 17 16 33 31 24 26 26 17 24 36 48 37 35 46 58 57 54 51 42 43 41 42 43 46 50 44 45 45 48 55 59 56 52 45 40 42 42 40
33 19 4 6 13 7 10 16 26 23 41 25 23 37 40 40 36 44 53 43 42 44 37 31 31 32 34 42 47 48 48 47 47 50 50 52 56 56 52 48 45 46 44 40
25 22 14 5 10 18 32 10 27 12 13 30 39 34 31 21 7 14 31 25 16 11 15 22 31 38 40 43 45 47 45 45 46 50 53 53 55 54 52 50 49 48 43 37
13 15 30 25 16 12 19 8 33 16 19 6 34 47 35 12 30 34 22 19 19 21 22 25 30 36 43 48 52 53 48 46 48 52 53 53 54 53 51 48 44 39 36 32
10 11 14 18 10 13 15 13 20 26 22 11 13 17 22 22 14 23 22 18 19 24 30 36 42 44 47 51 54 53 50 46 48 49 48 48 48 46 43 39 37 34 30 24
7 13 8 12 10 10 43 13 21 30 24 14 15 21 26 26 26 25 26 25 27 34 39 42 46 49 50 52 56 54 44 42 42 40 40 40 40 39 36 34 32 28 25 22
9 11 9 7 19 9 4 8 7 5 13 18 17 18 26 33 35 35 30 27 35 40 42 44 47 50 52 54 54 48 43 37 37 38 35 34 35 35 34 33 30 27 24 20
13 17 11 8 8 2 21 22 23 31 32 30 27 34 41 44 50 46 41 39 45 44 44 42 45 50 54 55 51 45 40 38 35 34 33 33 33 33 31 30 27 23 20 18
16 12 12 11 13 20 36 42 31 31 22 21 30 38 40 44 51 42 52 54 50 45 43 43 43 46 48 50 48 43 39 36 35 34 34 34 33 33 30 26 20 14 6 10
Wind_Direction_850mb
192 136 191 199 182 112 121 150 217 80 335 120 227 259 266 281 275 259 247 252 251 244 238 240 233 239 246 243 241 240 240 244 249 254 256 263 268 270 265 263 262 262 261 261
75 238 225 204 216 232 230 23 301 96 162 145 249 269 267 251 251 249 248 244 247 253 257 260 266 266 261 258 257 252 249 251 253 252 253 259 265 268 269 266 264 268 263 261
145 196 205 243 174 204 185 176 235 44 54 322 24 297 274 285 240 247 252 256 260 263 264 264 259 260 261 255 243 238 240 243 249 251 255 255 256 257 258 262 265 268 275 270
212 275 114 127 166 141 178 222 208 112 90 237 124 284 304 278 267 229 249 248 251 254 262 270 261 247 256 253 247 245 247 254 251 246 250 251 253 257 266 264 268 271 269 266
219 179 146 129 188 125 161 66 136 107 105 27 285 214 267 281 267 261 262 243 238 227 230 245 255 251 251 253 253 252 253 253 250 248 244 243 246 257 261 258 256 251 258 262
118 338 148 178 185 173 146 86 52 52 88 317 221 180 265 228 225 130 108 136 141 159 269 276 284 266 257 257 256 256 255 250 244 242 240 238 239 245 251 253 249 234 245 249
116 239 47 128 102 32 115 115 48 358 320 228 297 186 244 243 189 165 156 137 136 142 274 279 298 315 307 277 275 265 252 245 240 240 237 237 239 243 245 241 236 237 247 251
151 220 172 192 187 163 178 160 160 201 202 242 317 231 249 268 131 143 138 135 157 197 204 241 284 356 356 347 336 301 261 239 240 237 229 227 230 233 239 239 239 248 254 254
151 245 129 161 139 132 169 215 176 108 24 59 233 282 307 189 109 115 115 113 107 132 176 167 192 349 2 352 331 325 317 290 230 205 209 220 225 228 233 236 239 239 235 239
155 117 179 112 155 266 162 154 143 355 175 241 264 257 235 161 169 128 105 93 98 116 141 91 45 35 18 352 331 319 304 283 264 245 224 213 211 211 213 214 218 222 225 237
183 111 199 131 205 188 164 190 200 151 173 196 248 261 233 209 165 144 147 104 100 87 77 57 36 29 9 356 341 314 297 280 265 252 239 221 203 193 192 202 216 234 262 282
186 105 168 192 311 169 228 192 190 154 229 222 146 274 284 137 160 152 165 138 129 98 53 18 2 348 351 331 318 306 287 280 267 251 227 201 193 196 201 214 244 271 288 298
174 160 137 150 341 318 207 209 213 175 88 218 152 252 193 152 143 154 162 180 178 165 148 360 344 329 334 333 326 313 290 269 255 245 229 217 203 195 218 257 278 284 288 292
175 170 186 195 171 150 196 205 212 205 190 192 222 193 193 203 188 199 185 142 338 310 297 307 325 326 318 316 314 312 302 278 256 246 234 223 216 218 230 252 267 278 282 285
186 199 203 211 59 253 217 207 205 209 224 190 234 212 231 208 217 229 282 294 308 304 295 305 315 311 315 308 306 309 306 290 265 247 238 236 239 242 248 258 263 269 274 284
189 231 159 268 230 199 241 246 210 218 231 230 240 249 203 267 286 291 291 300 304 295 290 297 294 302 303 304 300 303 297 295 282 257 247 247 249 250 252 260 264 270 281 289
239 165 135 235 200 132 231 221 214 223 230 219 235 241 200 237 242 253 270 275 270 271 277 283 294 297 291 293 295 295 296 292 285 275 258 253 252 252 253 257 261 266 269 271
243 250 173 220 83 227 236 186 205 214 227 217 240 240 219 233 247 257 257 267 277 278 282 287 292 293 289 291 295 295 291 287 277 278 272 261 256 255 255 258 261 262 262 263
210 227 225 239 211 292 305 219 191 194 240 226 229 249 251 257 264 262 262 266 274 281 284 283 284 291 297 297 294 293 291 286 278 268 265 266 263 260 258 257 259 259 259 257
198 210 196 187 238 203 238 184 197 104 273 232 217 245 244 230 197 255 273 254 217 225 253 270 283 285 294 301 299 295 288 279 272 267 263 261 259 255 253 255 257 254 251 250
197 201 213 218 240 264 250 227 149 140 236 250 236 245 245 189 243 271 217 223 247 263 278 288 294 299 305 303 299 296 287 277 266 258 257 256 255 253 254 257 255 252 250 249
217 184 205 204 212 247 160 133 164 215 207 244 200 244 252 249 222 209 228 252 271 285 293 298 300 301 302 298 292 289 283 275 264 260 258 256 254 253 251 247 243 243 245 246
222 185 186 186 219 224 172 201 234 241 240 231 216 233 246 243 238 242 255 268 279 291 294 294 294 294 294 292 288 283 280 272 265 259 257 254 250 245 240 235 233 232 232 234
255 177 194 124 240 180 211 187 186 232 258 258 247 248 241 253 266 270 269 282 300 300 298 297 294 291 289 289 285 276 269 260 257 256 250 244 238 233 228 225 220 217 223 237
199 162 181 253 258 209 256 247 250 257 257 255 265 272 270 268 265 272 264 291 306 297 291 286 290 291 286 282 275 267 259 256 249 246 238 230 226 223 221 217 215 212 219 233
181 184 190 222 208 220 253 260 263 257 257 271 285 279 275 269 273 269 279 295 297 288 282 284 287 283 278 274 268 260 254 248 238 229 225 220 217 214 210 207 209 198 237 293